Radiation Dose at Monitoring Post of Fukushima Daini Nuclear Power Station
Date,Time,MP-1(microSv/h),MP-2(microSv/h),MP-3(microSv/h),MP-4(microSv/h),MP-5(microSv/h),MP-6(microSv/h),MP-7(microSv/h),Wind Direction,Wind Velocity(m/s),Rain
2019/03/24,00:00,0.206,0.189,0.312,0.290,0.276,0.156,0.095,-,CALM,No
2019/03/24,00:10,0.206,0.189,0.312,0.293,0.275,0.155,0.094,northeast,1.7,No
2019/03/24,00:20,0.206,0.189,0.312,0.292,0.278,0.155,0.094,northeast,1.3,No
2019/03/24,00:30,0.205,0.190,0.312,0.291,0.277,0.155,0.095,north-northwest,1.6,No
2019/03/24,00:40,0.206,0.190,0.312,0.290,0.276,0.156,0.095,north-northwest,1.7,No
2019/03/24,00:50,0.206,0.189,0.311,0.291,0.276,0.156,0.095,north,0.7,No
2019/03/24,01:00,0.206,0.189,0.312,0.291,0.275,0.155,0.095,north-northeast,1.2,No
2019/03/24,01:10,0.206,0.189,0.312,0.291,0.276,0.155,0.095,north,1.2,No
2019/03/24,01:20,0.206,0.189,0.312,0.292,0.276,0.156,0.094,northwest,1.1,No
2019/03/24,01:30,0.206,0.189,0.312,0.291,0.278,0.156,0.093,northwest,1.1,No
2019/03/24,01:40,0.205,0.189,0.312,0.291,0.276,0.156,0.095,northwest,0.6,No
2019/03/24,01:50,0.206,0.189,0.312,0.291,0.274,0.156,0.094,-,CALM,No
2019/03/24,02:00,0.205,0.190,0.312,0.291,0.276,0.155,0.094,north,0.6,No
2019/03/24,02:10,0.206,0.189,0.312,0.291,0.278,0.155,0.095,northwest,2.4,No
2019/03/24,02:20,0.206,0.189,0.312,0.292,0.277,0.156,0.095,northwest,4.8,No
2019/03/24,02:30,0.206,0.190,0.312,0.291,0.275,0.156,0.095,northwest,3.7,No
2019/03/24,02:40,0.205,0.189,0.311,0.291,0.275,0.155,0.095,north-northwest,4.0,No
2019/03/24,02:50,0.205,0.189,0.312,0.291,0.276,0.156,0.095,northwest,2.6,No
2019/03/24,03:00,0.206,0.190,0.311,0.290,0.276,0.155,0.095,northwest,2.0,No
2019/03/24,03:10,0.206,0.189,0.311,0.293,0.278,0.155,0.094,north,1.9,No
2019/03/24,03:20,0.205,0.189,0.312,0.292,0.275,0.155,0.095,north,1.3,No
2019/03/24,03:30,0.206,0.190,0.312,0.291,0.277,0.155,0.095,north-northwest,1.1,No
2019/03/24,03:40,0.206,0.189,0.312,0.292,0.276,0.155,0.095,north-northeast,0.8,No
2019/03/24,03:50,0.205,0.188,0.313,0.292,0.277,0.156,0.095,-,CALM,No
2019/03/24,04:00,0.206,0.189,0.312,0.291,0.278,0.156,0.095,north-northwest,0.7,No
2019/03/24,04:10,0.206,0.190,0.312,0.292,0.277,0.156,0.094,north,0.7,No
2019/03/24,04:20,0.206,0.190,0.311,0.292,0.277,0.155,0.095,north,1.1,No
2019/03/24,04:30,0.205,0.190,0.312,0.291,0.276,0.155,0.094,-,CALM,No
2019/03/24,04:40,0.206,0.189,0.313,0.293,0.276,0.155,0.094,-,CALM,No
2019/03/24,04:50,0.206,0.190,0.312,0.291,0.276,0.155,0.095,-,CALM,No
2019/03/24,05:00,0.205,0.189,0.313,0.290,0.276,0.156,0.095,-,CALM,No
2019/03/24,05:10,0.205,0.190,0.312,0.291,0.277,0.155,0.094,east-southeast,1.1,No
2019/03/24,05:20,0.206,0.190,0.312,0.291,0.276,0.156,0.095,south,1.5,No
2019/03/24,05:30,0.205,0.190,0.312,0.291,0.275,0.155,0.095,south-southwest,3.5,No
2019/03/24,05:40,0.205,0.190,0.310,0.292,0.276,0.156,0.094,south-southwest,3.5,No
2019/03/24,05:50,0.206,0.189,0.312,0.292,0.276,0.155,0.094,south-southwest,5.0,No
2019/03/24,06:00,0.206,0.189,0.312,0.290,0.275,0.155,0.095,southwest,5.9,No
2019/03/24,06:10,0.205,0.189,0.313,0.291,0.276,0.155,0.094,southwest,4.6,No
2019/03/24,06:20,0.205,0.189,0.311,0.292,0.277,0.155,0.094,south-southwest,3.0,No
2019/03/24,06:30,0.205,0.190,0.311,0.290,0.276,0.155,0.095,southwest,4.1,No
2019/03/24,06:40,0.206,0.189,0.312,0.292,0.275,0.156,0.094,southwest,3.2,No
2019/03/24,06:50,0.206,0.189,0.311,0.290,0.277,0.155,0.095,southwest,3.1,No
2019/03/24,07:00,0.205,0.190,0.312,0.291,0.277,0.155,0.095,southwest,3.7,No
2019/03/24,07:10,0.205,0.190,0.312,0.291,0.277,0.156,0.094,southwest,4.2,No
2019/03/24,07:20,0.206,0.189,0.313,0.291,0.276,0.155,0.095,southwest,3.7,No
2019/03/24,07:30,0.205,0.189,0.311,0.293,0.275,0.156,0.095,south-southwest,4.0,No
2019/03/24,07:40,0.205,0.190,0.311,0.291,0.277,0.154,0.094,south,4.8,No
2019/03/24,07:50,0.205,0.191,0.312,0.290,0.276,0.155,0.094,south,5.2,No
2019/03/24,08:00,0.205,0.189,0.311,0.290,0.276,0.155,0.095,south,4.3,No
2019/03/24,08:10,0.206,0.188,0.313,0.289,0.277,0.156,0.094,southwest,2.6,No
2019/03/24,08:20,0.205,0.190,0.312,0.290,0.277,0.156,0.094,west,4.0,No
2019/03/24,08:30,0.205,0.188,0.311,0.291,0.276,0.154,0.094,west,7.0,No
2019/03/24,08:40,0.204,0.189,0.313,0.290,0.275,0.155,0.094,west,8.1,No
2019/03/24,08:50,0.206,0.188,0.311,0.290,0.278,0.157,0.094,west,10.9,No
2019/03/24,09:00,0.204,0.188,0.310,0.291,0.276,0.156,0.094,west-northwest,12.2,No
2019/03/24,09:10,0.206,0.190,0.310,0.289,0.276,0.155,0.094,west-northwest,9.0,No
2019/03/24,09:20,0.205,0.188,0.312,0.291,0.278,0.155,0.094,west-northwest,11.5,No
2019/03/24,09:30,0.205,0.189,0.311,0.290,0.276,0.155,0.095,west-northwest,8.4,No
2019/03/24,09:40,0.206,0.190,0.311,0.291,0.277,0.156,0.094,west-northwest,9.8,No
2019/03/24,09:50,0.205,0.189,0.311,0.290,0.278,0.155,0.094,west-northwest,11.1,No
2019/03/24,10:00,0.205,0.188,0.312,0.291,0.277,0.154,0.095,west-northwest,11.1,No
2019/03/24,10:10,0.207,0.189,0.312,0.289,0.278,0.154,0.095,west-northwest,13.3,No
2019/03/24,10:20,0.205,0.188,0.311,0.291,0.278,0.154,0.095,west-northwest,12.6,No
2019/03/24,10:30,0.205,0.188,0.313,0.290,0.277,0.154,0.095,west-northwest,16.3,No
2019/03/24,10:40,0.204,0.188,0.311,0.290,0.275,0.155,0.094,west-northwest,12.4,No
2019/03/24,10:50,0.205,0.188,0.311,0.291,0.277,0.155,0.095,west-northwest,13.6,No
2019/03/24,11:00,0.205,0.188,0.311,0.289,0.278,0.154,0.094,west-northwest,11.8,No
2019/03/24,11:10,0.205,0.190,0.312,0.291,0.277,0.154,0.094,west,11.1,No
2019/03/24,11:20,0.206,0.188,0.309,0.291,0.277,0.155,0.094,west-northwest,9.8,No
2019/03/24,11:30,0.206,0.188,0.312,0.289,0.277,0.153,0.094,west-northwest,16.1,No
2019/03/24,11:40,0.205,0.189,0.309,0.289,0.275,0.155,0.093,west-northwest,12.9,No
2019/03/24,11:50,0.205,0.188,0.310,0.291,0.275,0.155,0.094,west,15.5,No
2019/03/24,12:00,0.205,0.189,0.313,0.289,0.278,0.155,0.094,west-northwest,12.5,No
2019/03/24,12:10,0.204,0.188,0.311,0.292,0.276,0.155,0.094,west,12.9,No
2019/03/24,12:20,0.206,0.188,0.312,0.291,0.278,0.156,0.094,west-northwest,10.4,No
2019/03/24,12:30,0.206,0.188,0.312,0.291,0.276,0.155,0.093,west,14.5,No
2019/03/24,12:40,0.206,0.187,0.311,0.290,0.278,0.155,0.094,west,12.8,No
2019/03/24,12:50,0.206,0.189,0.310,0.291,0.277,0.155,0.094,west,16.0,No
2019/03/24,13:00,0.204,0.188,0.310,0.290,0.277,0.154,0.094,west,14.9,No
2019/03/24,13:10,0.206,0.188,0.310,0.291,0.278,0.155,0.094,west-northwest,11.7,No
2019/03/24,13:20,0.205,0.189,0.311,0.289,0.277,0.155,0.094,west,15.3,No
2019/03/24,13:30,0.207,0.188,0.310,0.290,0.277,0.155,0.093,west-northwest,10.4,No
2019/03/24,13:40,0.205,0.188,0.311,0.290,0.275,0.155,0.093,west-northwest,11.5,No
2019/03/24,13:50,0.206,0.189,0.312,0.291,0.279,0.154,0.095,west,10.6,No
2019/03/24,14:00,0.205,0.189,0.311,0.290,0.276,0.155,0.094,west,11.2,No
2019/03/24,14:10,0.206,0.188,0.312,0.291,0.278,0.155,0.095,west-northwest,11.5,No
2019/03/24,14:20,0.206,0.189,0.311,0.289,0.277,0.155,0.094,west,11.5,No
2019/03/24,14:30,0.206,0.188,0.310,0.290,0.278,0.154,0.094,west-northwest,9.5,No
2019/03/24,14:40,0.205,0.188,0.312,0.290,0.276,0.154,0.094,west,12.4,No
2019/03/24,14:50,0.205,0.188,0.310,0.292,0.278,0.155,0.094,west,11.2,No
2019/03/24,15:00,0.205,0.189,0.311,0.290,0.277,0.155,0.094,west-northwest,9.0,No
2019/03/24,15:10,0.205,0.189,0.312,0.292,0.280,0.154,0.094,west,10.6,No
2019/03/24,15:20,0.205,0.190,0.312,0.291,0.280,0.156,0.094,west,8.2,No
2019/03/24,15:30,0.205,0.188,0.312,0.291,0.278,0.155,0.095,west-northwest,9.5,No
2019/03/24,15:40,0.205,0.189,0.314,0.292,0.279,0.155,0.095,west-northwest,8.1,No
2019/03/24,15:50,0.205,0.189,0.312,0.292,0.277,0.155,0.094,west,7.6,No
2019/03/24,16:00,0.206,0.189,0.312,0.293,0.280,0.154,0.094,west-northwest,9.2,No
2019/03/24,16:10,0.206,0.189,0.313,0.292,0.277,0.155,0.094,west,8.2,No
2019/03/24,16:20,0.205,0.189,0.312,0.293,0.278,0.154,0.094,west,7.0,No
2019/03/24,16:30,0.206,0.189,0.312,0.292,0.280,0.156,0.093,west-northwest,10.6,No
2019/03/24,16:40,0.206,0.189,0.312,0.291,0.276,0.155,0.094,west,11.2,No
2019/03/24,16:50,0.206,0.189,0.313,0.292,0.278,0.156,0.094,west,12.6,No
2019/03/24,17:00,0.206,0.189,0.313,0.293,0.278,0.157,0.094,west-northwest,10.7,No
2019/03/24,17:10,0.206,0.190,0.313,0.291,0.279,0.156,0.094,west,10.1,No
2019/03/24,17:20,0.206,0.189,0.314,0.291,0.279,0.156,0.094,west,9.5,No
2019/03/24,17:30,0.206,0.189,0.314,0.292,0.279,0.156,0.094,west,9.0,No
2019/03/24,17:40,0.205,0.190,0.312,0.293,0.278,0.157,0.095,west,8.7,No
2019/03/24,17:50,0.206,0.190,0.312,0.292,0.278,0.155,0.094,west,8.7,No
2019/03/24,18:00,0.206,0.189,0.313,0.292,0.279,0.156,0.094,west,9.0,No
2019/03/24,18:10,0.206,0.189,0.312,0.291,0.278,0.155,0.094,west,8.1,No
2019/03/24,18:20,0.206,0.190,0.313,0.293,0.279,0.156,0.094,west,9.0,No
2019/03/24,18:30,0.206,0.190,0.311,0.292,0.278,0.156,0.094,west-northwest,9.2,No
2019/03/24,18:40,0.206,0.189,0.312,0.291,0.278,0.155,0.094,west,7.3,No
2019/03/24,18:50,0.205,0.189,0.313,0.292,0.279,0.156,0.094,west-northwest,3.8,No
2019/03/24,19:00,0.206,0.190,0.312,0.293,0.278,0.155,0.095,west-northwest,5.7,No
2019/03/24,19:10,0.206,0.189,0.313,0.292,0.277,0.155,0.095,west-northwest,3.6,No
2019/03/24,19:20,0.206,0.189,0.312,0.291,0.277,0.155,0.094,west-northwest,6.2,No
2019/03/24,19:30,0.207,0.189,0.313,0.291,0.277,0.155,0.095,west-northwest,4.8,No
2019/03/24,19:40,0.205,0.190,0.313,0.292,0.277,0.156,0.095,west-northwest,7.3,No
2019/03/24,19:50,0.205,0.190,0.312,0.293,0.276,0.155,0.095,west-northwest,7.8,No
2019/03/24,20:00,0.207,0.189,0.313,0.292,0.277,0.154,0.094,west,6.8,No
2019/03/24,20:10,0.205,0.189,0.313,0.292,0.278,0.156,0.094,west-northwest,8.4,No
2019/03/24,20:20,0.206,0.190,0.313,0.292,0.277,0.155,0.094,west-northwest,8.1,No
2019/03/24,20:30,0.206,0.190,0.312,0.293,0.277,0.155,0.094,west-northwest,6.8,No
2019/03/24,20:40,0.206,0.189,0.312,0.292,0.277,0.156,0.094,northwest,5.9,No
2019/03/24,20:50,0.206,0.189,0.313,0.292,0.278,0.156,0.094,west-northwest,9.0,No
2019/03/24,21:00,0.206,0.188,0.313,0.291,0.277,0.155,0.095,northwest,6.8,No
2019/03/24,21:10,0.206,0.190,0.313,0.293,0.277,0.155,0.093,northwest,7.6,No
2019/03/24,21:20,0.206,0.190,0.314,0.291,0.277,0.155,0.094,northwest,7.5,No
2019/03/24,21:30,0.206,0.190,0.311,0.294,0.276,0.155,0.094,northwest,8.6,No
2019/03/24,21:40,0.205,0.189,0.313,0.291,0.278,0.155,0.094,west-northwest,8.7,No
2019/03/24,21:50,0.206,0.189,0.313,0.292,0.276,0.156,0.094,northwest,10.1,No
2019/03/24,22:00,0.207,0.190,0.313,0.293,0.277,0.155,0.094,northwest,8.2,No
2019/03/24,22:10,0.206,0.189,0.314,0.292,0.277,0.155,0.094,northwest,9.5,No
2019/03/24,22:20,0.205,0.189,0.311,0.293,0.277,0.155,0.094,west-northwest,7.8,No
2019/03/24,22:30,0.206,0.189,0.312,0.291,0.277,0.155,0.094,northwest,9.2,No
2019/03/24,22:40,0.206,0.189,0.314,0.292,0.277,0.155,0.095,west-northwest,9.2,No
2019/03/24,22:50,0.206,0.189,0.312,0.292,0.278,0.154,0.094,west-northwest,11.2,No
2019/03/24,23:00,0.206,0.188,0.313,0.292,0.277,0.155,0.095,northwest,10.1,No
2019/03/24,23:10,0.205,0.189,0.312,0.293,0.277,0.156,0.094,west-northwest,8.4,No
2019/03/24,23:20,0.207,0.189,0.313,0.292,0.277,0.155,0.094,west-northwest,8.1,No
2019/03/24,23:30,0.205,0.190,0.314,0.292,0.277,0.155,0.093,west-northwest,7.0,No
2019/03/24,23:40,0.205,0.189,0.313,0.292,0.278,0.156,0.094,west,4.5,No
2019/03/24,23:50,0.206,0.190,0.313,0.292,0.277,0.155,0.094,north,1.9,No
